Track KKS-1 (KISEKI) now! 10-day predictions KKS-1 (KISEKI) is classified as:
1 33499U 09002H 25186.52362421 .00001108 00000-0 14769-3 0 9996 2 33499 98.1188 98.9419 0007670 343.5451 16.5511 14.81687382884838